FALCON 9 R/B, 58996

Orbit data source: Space-Track

FALCON 9 R/B, 58996 is space debris in HEO originally from a launch on Tue, 20 Feb 2024 UTC launched from the Air Force Eastern Test Range (AFETR). Debris objects in space refer to the collection of defunct objects orbiting the Earth. Examples of debris include non-operational satellites, rocket bodies, and fragments generated from explosions, collisions, or faulty payload assembly.

Loading next visibility...
Identifier
58996, 2024-035B
Orbit
HEO
Country
Flag of USUS
Related business
Manufacturer
SpaceX
Mission
Spacecraft
Bus & Motor
F9ST2, Unknown motor
Mass
~4,000 kg wet, ~4,000 kg dry
Launch date (UTC)
2024-02-20 (3 years ago)
Launch vehicle
Unknown
Launch site
Air Force Eastern Test Range (AFETR)
Object type
Payload
Rocket body
Debris
Shape & HBR
Cyl, 8.0 m
Radar Cross Section
39.980 m², Large (>1 m²)

Expand to show TLE details & history
Last TLE update: 9 hours ago

TLE from 9 hours ago
0 FALCON 9 R/B
1 58996U 24035B   26254.18415436  .00000059  00000-0  38408-3 0  9992
2 58996  20.8446  74.3596 7994705 197.2055  97.1720  1.40603004 13027
Epoch: 2026-09-11T04:25Z
TLE epoch observation values (Epoch: 2026-09-11T04:25:10.936Z)
Latitude
-0.00001°
Longitude
17.84157°
Altitude
45,000.595 km
Speed
1.916 km/s
True Right ascension
04h 57m 23s
True Declination
0° 00' 00"
Sunlit
Object was in daylight at epoch
Visualization orbit readout
Latitude
Unknown
Longitude
Unknown
Altitude
Unknown
Speed
Unknown
Apparent Right ascension
Unknown
Apparent Declination
Unknown
Sunlit
N/A
Visualization observer readout
Local Sidereal Time
05:35:25
Azimuth
Unknown
Elevation
Unknown
Doppler factor
Unknown
Orbital elements
Apogee altitude
54,195.02 km
Perigee altitude
372.018 km
Semi-major axis
33,661.656 km
Eccentricity
0.79947
Inclination
20.8446°
RAAN
74.3596°
Arg. of periapsis
197.2055°
True anomaly
162.89086°
Mean anomaly
97.172°
Eccentric anomaly
131.48619°
Mean motion
0.35143 °/min
Orbital period
1,024.38 mins
BSTAR
0.00038408
Loading maneuver chart data...
Computing Atmospheric mass density...
Loading historical data...
Loading historical data...
Loading historical data...
Loading historical data...
Loading historical data...
Loading historical data...
Loading historical data...
Other satellites on launch #35 in the year 2024 (2024-02-20 UTC)

Documentation

Showing up to 5 results
|